User: anonymous   Login
Location: Capannuccia
(43.7000°N, 11.3000°E)
Time: 08:05:44
(UTC+00:00)
Language:

STARLINK-2651 - Orbit

View from above orbital plane
View from above orbital plane
View from above satellite
View from above satellite

Ground track
Ground track

The orbit data is extracted from the following two-line orbital elements,

1 48654C 21044S   21293.10780698  .00003146  00000-0  21089-3 0  2938
2 48654  53.0544 111.4002 0001425  80.5607 170.2411 15.06379338    19
Epoch (UTC): 20 October 2021 02:35:14
Eccentricity: 0.0001425
inclination: 53.0544°
perigee height: 546 km
apogee height: 548 km
right ascension of ascending node: 111.4002°
argument of perigee: 80.5607°
revolutions per day: 15.06379338
mean anomaly at epoch: 170.2411°
orbit number at epoch: 1

The dashed part of the orbit path shows where the satellite is in the earth's shadow,  

DLR